{"data":{"norad_id":63180,"epoch":"2026-09-22T11:09:51.011136Z","epoch_age_seconds":141127,"freshness":"FRESH","line1":"1 63180U 25047C   26265.46517374  .00000333  00000+0  57612-4 0  9997","line2":"2 63180  97.9566  88.7408 0009254 209.7870 150.2813 14.74434362 82390","mean_motion":14.74434362,"eccentricity":0.0009254,"inclination_deg":97.9566,"raan_deg":88.7408,"arg_perigee_deg":209.787,"mean_anomaly_deg":150.2813,"bstar":5.7612e-5,"rev_number":8239,"period_min":97.664571384969,"perigee_km":640.44637547072,"apogee_km":653.44840165707,"semimajor_km":7025.0843885639,"source":"CELESTRAK","updated_at":"2026-09-23T09:00:21.884234Z"}}